Regional Weather Roundup
Issued by NWS

Home | Current Version | Previous Version | Text Only | Print | Product List | Glossary Off
Versions: 1 2 3 4 5 6 7 8 9 10 11 12 13 14 15 16 17 18 19 20 21 22 23 24 25 26 27 28 29 30 31 32 33 34 35 36 37 38 39 40 41 42 43 44 45 46 47 48 49 50

000
ASUS43 KLSX 030307
RWRMO

WEATHER SUMMARY FOR MISSOURI
NATIONAL WEATHER SERVICE SPRINGFIELD MO
1000 PM CDT SAT MAY 02 2015

NOTE: "FAIR" INDICATES FEW OR NO CLOUDS BELOW 12,000 FEET WITH NO
       SIGNIFICANT WEATHER AND/OR OBSTRUCTIONS TO VISIBILITY.
       CURRENT SKY AND/OR WEATHER CONDITIONS ARE NOT AVAILABLE FOR
       CHILLICOTHE AND FARMINGTON.

MOZ001>031-035>038-043-044-053-054-030400-
...NORTHERN AND WESTERN MISSOURI...

CITY           SKY/WX    TMP DP  RH WIND       PRES   REMARKS
KANSAS CTY INT CLEAR     66  52  60 S13       29.90R
KANSAS C DTWN  CLEAR     70  51  51 S13       29.90R
LEE`S SUMMIT   CLEAR     68  51  54 S10       29.92S
ST JOSEPH      CLEAR     67  53  61 S10       29.88R
CHILLICOTHE      N/A     63  55  75 SE8       29.93S
KIRKSVILLE     PTCLDY    55  52  89 SE8       29.95S

$$
MOZ066>068-077>081-088>096-101>105-030400-
...SOUTHWEST MISSOURI...

CITY           SKY/WX    TMP DP  RH WIND       PRES   REMARKS
SPRINGFIELD    PTCLDY    63  50  62 S8        29.98S
JOPLIN         CLEAR     64  52  64 S8        29.97R

$$
MOZ032>034-039>042-045>050-055>058-069>072-030400-
...CENTRAL MISSOURI...

CITY           SKY/WX    TMP DP  RH WIND       PRES   REMARKS
COLUMBIA       MOCLDY    67  48  50 SE6       29.97R
JEFFERSON CITY MOCLDY    69  48  47 E3        29.96R
ROLLA          MOCLDY    65  44  46 S8        29.98R
SEDALIA        CLEAR     62  51  67 SE7       29.96S
WHITEMAN AFB   PTCLDY    67  52  58 S6        29.93R
WARRENSBURG    CLEAR     63  50  63 SE5       29.93S
OSAGE BEACH    PTCLDY    66  45  45 S6        29.98R

$$
MOZ051-052-059>065-030400-
...EAST CENTRAL MISSOURI...

CITY           SKY/WX    TMP DP  RH WIND       PRES   REMARKS
ST LOUIS INTL  CLOUDY    72  44  36 SE10      30.00S
SPIRIT OF STL  MOCLDY    69  43  38 SE5       29.98R
ST CHARLES     CLOUDY    69  44  40 E12       29.98S

$$
MOZ072>076-082>087-097>100-106>115-030400-
...SOUTH CENTRAL AND SOUTHEAST MISSOURI...

CITY           SKY/WX    TMP DP  RH WIND       PRES   REMARKS
CAPE GIRARDEAU CLEAR     59  47  64 S7        30.04R
FARMINGTON     PTCLDY    61  43  51 S5        30.06S
POPLAR BLUFF   CLEAR     59  50  72 CALM      30.02S
WEST PLAINS    CLOUDY    66  40  38 S7        30.03S

$$


USA.gov is the U.S. government's official web portal to all federal, state and local government web resources and services.